User: anonymous   Login
Location: Unspecified
(34.1750°S, 150.8048°E)
Time: 23:31:03
(UTC+11:00)
Language:

Tiangong - Orbit

View from above orbital plane
View from above orbital plane
View from above satellite
View from above satellite

Ground track
Ground track

The orbit data is extracted from the following two-line orbital elements,

1 48274U 21035A   23338.82747176  .00016995  00000-0  18296-3 0  9996
2 48274  41.4695 196.7238 0007913 275.7333  84.2605 15.63284559148514
Epoch (UTC): 04 December 2023 19:51:33
Eccentricity: 0.0007913
inclination: 41.4695°
perigee height: 373 km
apogee height: 383 km
right ascension of ascending node: 196.7238°
argument of perigee: 275.7333°
revolutions per day: 15.63284559
mean anomaly at epoch: 84.2605°
orbit number at epoch: 14851

The dashed part of the orbit path shows where the satellite is in the earth's shadow,  

DLR